ORBCOMM FM13 [+]

Last updated on Fri Dec 29 2023 00:02:54 GMT+0000 (Coordinated Universal Time)

1 25420U 98046H 23361.65939430 .00001484 00000+0 56764-3 0 9991 2 25420 44.9965 205.4891 0004935 98.4307 261.7100 14.34793608325960
UTC large
Height (km)
Speed (km/s)
/
Latitude / Longitude
Inclination (degrees)
Orbital Period (minutes)
Azimuth
Elevation
Range (km)
Doppler Factor

Next 0 passes for location: London (51.5072 / 0.1276)

Sorry there are no passes over London.